| time (UTC) | temp F | wind direction | speed knots | gust knots | rain 1hr in | rain 24hr in | rain mn in | humidity % | barometer mb |
| 20260506002316 | 67 | 119 | 1.7 | 5.2 | 0.00 | 0.00 | 0.00 | 50 | 1098.8 |
| 20260506001812 | 67 | 131 | 2.6 | 4.3 | 0.00 | 0.00 | 0.00 | 50 | 1098.7 |
| 20260506001309 | 67 | 137 | 1.7 | 5.2 | 0.00 | 0.00 | 0.00 | 50 | 1098.8 |
| 20260506000806 | 68 | 136 | 2.6 | 4.3 | 0.00 | 0.00 | 0.00 | 50 | 1098.6 |
| 20260506000304 | 68 | 119 | 2.6 | 4.3 | 0.00 | 0.00 | 0.00 | 49 | 1098.7 |
| 20260505235800 | 68 | 151 | 0.9 | 4.3 | 0.00 | 0.00 | 0.00 | 49 | 1098.6 |
| 20260505235258 | 68 | 128 | 0.9 | 4.3 | 0.00 | 0.00 | 0.00 | 49 | 1098.7 |
| 20260505234755 | 69 | 142 | 1.7 | 2.6 | 0.00 | 0.00 | 0.00 | 48 | 1098.6 |
| 20260505234253 | 68 | 141 | 1.7 | 2.6 | 0.00 | 0.00 | 0.00 | 48 | 1098.6 |
| 20260505233749 | 68 | 136 | 1.7 | 4.3 | 0.00 | 0.00 | 0.00 | 48 | 1098.6 |
| 20260505233247 | 68 | 129 | 0.9 | 4.3 | 0.00 | 0.00 | 0.00 | 49 | 1098.7 |
| 20260505232744 | 68 | 72 | 0.0 | 0.9 | 0.00 | 0.00 | 0.00 | 51 | 1098.4 |
| 20260505232241 | 69 | 149 | 0.9 | 1.7 | 0.00 | 0.00 | 0.00 | 50 | 1098.3 |
| 20260505231738 | 68 | 146 | 0.9 | 1.7 | 0.00 | 0.00 | 0.00 | 49 | 1098.4 |
| 20260505231237 | 69 | 64 | 0.0 | 0.9 | 0.00 | 0.00 | 0.00 | 49 | 1098.3 |
| 20260505230735 | 69 | 86 | 0.9 | 1.7 | 0.00 | 0.00 | 0.00 | 48 | 1098.5 |
| 20260505230231 | 70 | 133 | 0.9 | 1.7 | 0.00 | 0.00 | 0.00 | 45 | 1099.0 |
| 20260505225728 | 70 | 133 | 0.9 | 1.7 | 0.00 | 0.00 | 0.00 | 46 | 1099.0 |
| 20260505225225 | 70 | 117 | 0.0 | 0.9 | 0.00 | 0.00 | 0.00 | 46 | 1099.1 |
| 20260505224720 | 70 | 54 | 0.9 | 1.7 | 0.00 | 0.00 | 0.00 | 44 | 1098.7 |
| 20260505224218 | 70 | 146 | 0.9 | 1.7 | 0.00 | 0.00 | 0.00 | 45 | 1098.7 |
| 20260505223715 | 70 | 141 | 1.7 | 1.7 | 0.00 | 0.00 | 0.00 | 44 | 1098.8 |
| 20260505223211 | 70 | 130 | 0.9 | 1.7 | 0.00 | 0.00 | 0.00 | 44 | 1098.9 |
| 20260505222707 | 70 | 133 | 2.6 | 2.6 | 0.00 | 0.00 | 0.00 | 43 | 1099.1 |
| 20260505222203 | 70 | 128 | 1.7 | 4.3 | 0.00 | 0.00 | 0.00 | 43 | 1099.2 |
| 20260505221701 | 70 | 134 | 1.7 | 7.0 | 0.00 | 0.00 | 0.00 | 43 | 1099.1 |
| 20260505221157 | 71 | 127 | 2.6 | 7.0 | 0.00 | 0.00 | 0.00 | 43 | 1099.2 |
| 20260505220655 | 71 | 145 | 2.6 | 4.3 | 0.00 | 0.00 | 0.00 | 42 | 1099.2 |
| 20260505220152 | 71 | 146 | 1.7 | 4.3 | 0.00 | 0.00 | 0.00 | 42 | 1099.3 |
| 20260505215650 | 71 | 126 | 1.7 | 6.1 | 0.00 | 0.00 | 0.00 | 42 | 1099.2 |
| 20260505215148 | 72 | 69 | 2.6 | 6.1 | 0.00 | 0.00 | 0.00 | 41 | 1098.9 |
| 20260505214645 | 72 | 174 | 4.3 | 7.0 | 0.00 | 0.00 | 0.00 | 40 | 1099.1 |
| 20260505214142 | 72 | 150 | 2.6 | 4.3 | 0.00 | 0.00 | 0.00 | 41 | 1098.8 |
| 20260505213640 | 73 | 132 | 1.7 | 7.8 | 0.00 | 0.00 | 0.00 | 41 | 1099.0 |
| 20260505213136 | 73 | 143 | 2.6 | 7.8 | 0.00 | 0.00 | 0.00 | 40 | 1098.7 |
| 20260505212632 | 73 | 137 | 2.6 | 5.2 | 0.00 | 0.00 | 0.00 | 39 | 1098.7 |
| 20260505212130 | 73 | 132 | 2.6 | 4.3 | 0.00 | 0.00 | 0.00 | 40 | 1098.8 |
| 20260505211627 | 73 | 173 | 2.6 | 4.3 | 0.00 | 0.00 | 0.00 | 39 | 1098.8 |
| 20260505211124 | 73 | 142 | 0.9 | 7.0 | 0.00 | 0.00 | 0.00 | 38 | 1098.9 |
| 20260505210620 | 75 | 204 | 3.5 | 11.3 | 0.00 | 0.00 | 0.00 | 37 | 1098.9 |
| 20260505210117 | 76 | 132 | 4.3 | 8.7 | 0.00 | 0.00 | 0.00 | 34 | 1099.1 |
| 20260505205615 | 75 | 52 | 5.2 | 9.6 | 0.00 | 0.00 | 0.00 | 36 | 1099.1 |
| 20260505205113 | 77 | 147 | 6.1 | 9.6 | 0.00 | 0.00 | 0.00 | 37 | 1099.1 |
| 20260505204610 | 77 | 136 | 7.0 | 8.7 | 0.00 | 0.00 | 0.00 | 37 | 1099.0 |
| 20260505204107 | 78 | 72 | 2.6 | 7.0 | 0.00 | 0.00 | 0.00 | 33 | 1098.9 |
| 20260505203604 | 79 | 133 | 1.7 | 5.2 | 0.00 | 0.00 | 0.00 | 35 | 1099.0 |
| 20260505203101 | 78 | 147 | 4.3 | 9.6 | 0.00 | 0.00 | 0.00 | 35 | 1099.0 |
| 20260505202556 | 79 | 169 | 1.7 | 5.2 | 0.00 | 0.00 | 0.00 | 36 | 1099.1 |
| 20260505202053 | 77 | 147 | 0.9 | 4.3 | 0.00 | 0.00 | 0.00 | 35 | 1099.1 |
| 20260505201550 | 75 | 124 | 0.9 | 4.3 | 0.00 | 0.00 | 0.00 | 40 | 1098.9 |
| 20260505201048 | 77 | 127 | 2.6 | 11.3 | 0.00 | 0.00 | 0.00 | 38 | 1099.0 |
| 20260505200545 | 77 | 156 | 4.3 | 7.0 | 0.00 | 0.00 | 0.00 | 35 | 1099.1 |
| 20260505200042 | 77 | 131 | 1.7 | 4.3 | 0.00 | 0.00 | 0.00 | 37 | 1099.1 |
| 20260505195538 | 77 | 138 | 0.9 | 7.8 | 0.00 | 0.00 | 0.00 | 36 | 1099.2 |
| 20260505195036 | 77 | 155 | 0.9 | 7.0 | 0.00 | 0.00 | 0.00 | 36 | 1099.6 |
| 20260505194533 | 76 | 22 | 4.3 | 9.6 | 0.00 | 0.00 | 0.00 | 35 | 1099.3 |
| 20260505194028 | 75 | 153 | 4.3 | 9.6 | 0.00 | 0.00 | 0.00 | 36 | 1099.4 |
| 20260505193525 | 75 | 157 | 5.2 | 15.6 | 0.00 | 0.00 | 0.00 | 37 | 1099.3 |
| 20260505193023 | 76 | 156 | 4.3 | 8.7 | 0.00 | 0.00 | 0.00 | 37 | 1099.4 |
| 20260505192521 | 76 | 143 | 6.1 | 9.6 | 0.00 | 0.00 | 0.00 | 37 | 1099.5 |
| 20260505192018 | 77 | 12 | 4.3 | 8.7 | 0.00 | 0.00 | 0.00 | 36 | 1099.7 |
| 20260505191516 | 76 | 222 | 1.7 | 9.6 | 0.00 | 0.00 | 0.00 | 37 | 1099.9 |
| 20260505191014 | 74 | 139 | 1.7 | 4.3 | 0.00 | 0.00 | 0.00 | 37 | 1099.7 |
| 20260505190508 | 74 | 202 | 4.3 | 11.3 | 0.00 | 0.00 | 0.00 | 40 | 1100.1 |
| 20260505190004 | 73 | 149 | 5.2 | 11.3 | 0.00 | 0.00 | 0.00 | 41 | 1099.9 |
| 20260505185502 | 76 | 153 | 6.1 | 8.7 | 0.00 | 0.00 | 0.00 | 37 | 1100.2 |
| 20260505184957 | 74 | 138 | 2.6 | 7.0 | 0.00 | 0.00 | 0.00 | 37 | 1100.3 |
| 20260505184455 | 76 | 141 | 7.0 | 11.3 | 0.00 | 0.00 | 0.00 | 36 | 1100.3 |
| 20260505183951 | 76 | 128 | 7.0 | 9.6 | 0.00 | 0.00 | 0.00 | 39 | 1100.0 |
| 20260505183449 | 77 | 125 | 3.5 | 8.7 | 0.00 | 0.00 | 0.00 | 39 | 1100.0 |
| 20260505182944 | 75 | 289 | 0.0 | 2.6 | 0.00 | 0.00 | 0.00 | 40 | 1100.0 |
| 20260505182442 | 74 | 159 | 1.7 | 4.3 | 0.00 | 0.00 | 0.00 | 41 | 1100.0 |
| 20260505181937 | 75 | 155 | 3.5 | 8.7 | 0.00 | 0.00 | 0.00 | 42 | 1100.2 |
| 20260505181436 | 76 | 145 | 0.9 | 7.0 | 0.00 | 0.00 | 0.00 | 39 | 1100.3 |
| 20260505180932 | 75 | 144 | 4.3 | 8.7 | 0.00 | 0.00 | 0.00 | 40 | 1100.5 |
| 20260505180428 | 74 | 123 | 0.9 | 13.9 | 0.00 | 0.00 | 0.00 | 42 | 1100.3 |
| 20260505175925 | 73 | 117 | 6.1 | 13.9 | 0.00 | 0.00 | 0.00 | 42 | 1100.7 |
| 20260505175422 | 72 | 74 | 0.0 | 9.6 | 0.00 | 0.00 | 0.00 | 40 | 1100.7 |
| 20260505174918 | 73 | 126 | 4.3 | 7.8 | 0.00 | 0.00 | 0.00 | 39 | 1101.0 |
| 20260505174416 | 72 | 127 | 2.6 | 8.7 | 0.00 | 0.00 | 0.00 | 40 | 1100.7 |
| 20260505173912 | 72 | 111 | 7.0 | 11.3 | 0.00 | 0.00 | 0.00 | 40 | 1100.9 |
| 20260505173408 | 71 | 170 | 2.6 | 8.7 | 0.00 | 0.00 | 0.00 | 45 | 1101.1 |
| 20260505172905 | 73 | 135 | 6.1 | 11.3 | 0.00 | 0.00 | 0.00 | 42 | 1101.0 |
| 20260505172403 | 71 | 134 | 5.2 | 9.6 | 0.00 | 0.00 | 0.00 | 42 | 1101.2 |
| 20260505171902 | 70 | 134 | 5.2 | 12.2 | 0.00 | 0.00 | 0.00 | 42 | 1100.8 |
| 20260505171359 | 70 | 213 | 5.2 | 13.0 | 0.00 | 0.00 | 0.00 | 41 | 1101.2 |
| 20260505170856 | 71 | 155 | 4.3 | 13.9 | 0.00 | 0.00 | 0.00 | 41 | 1101.4 |
| 20260505170353 | 72 | 147 | 5.2 | 9.6 | 0.00 | 0.00 | 0.00 | 41 | 1101.5 |
| 20260505165848 | 72 | 170 | 4.3 | 6.1 | 0.00 | 0.00 | 0.00 | 40 | 1101.2 |
| 20260505165344 | 72 | 158 | 2.6 | 9.6 | 0.00 | 0.00 | 0.00 | 42 | 1101.2 |
| 20260505164840 | 71 | 166 | 1.7 | 2.6 | 0.00 | 0.00 | 0.00 | 38 | 1101.1 |
| 20260505164337 | 70 | 120 | 2.6 | 5.2 | 0.00 | 0.00 | 0.00 | 41 | 1101.0 |
| 20260505163835 | 71 | 140 | 2.6 | 7.8 | 0.00 | 0.00 | 0.00 | 42 | 1100.9 |
| 20260505163334 | 69 | 130 | 1.7 | 6.1 | 0.00 | 0.00 | 0.00 | 41 | 1101.1 |
| 20260505162832 | 69 | 160 | 9.6 | 13.0 | 0.00 | 0.00 | 0.00 | 41 | 1100.9 |
| 20260505162327 | 69 | 158 | 6.1 | 12.2 | 0.00 | 0.00 | 0.00 | 42 | 1101.1 |
| 20260505161825 | 69 | 150 | 5.2 | 7.0 | 0.00 | 0.00 | 0.00 | 43 | 1101.2 |
| 20260505161322 | 69 | 141 | 7.8 | 11.3 | 0.00 | 0.00 | 0.00 | 42 | 1101.5 |
| 20260505160819 | 69 | 134 | 9.6 | 13.0 | 0.00 | 0.00 | 0.00 | 42 | 1101.4 |
| 20260505160317 | 68 | 184 | 7.8 | 8.7 | 0.00 | 0.00 | 0.00 | 44 | 1101.7 |
| 20260505153256 | 68 | 161 | 1.7 | 7.8 | 0.00 | 0.00 | 0.00 | 47 | 1101.5 |
| 20260505152753 | 68 | 148 | 6.1 | 9.6 | 0.00 | 0.00 | 0.00 | 46 | 1101.5 |
| 20260505152249 | 65 | 127 | 0.9 | 8.7 | 0.00 | 0.00 | 0.00 | 53 | 1101.5 |
| 20260505151743 | 67 | 157 | 6.1 | 12.2 | 0.00 | 0.00 | 0.00 | 52 | 1101.4 |
| 20260505151241 | 66 | 154 | 2.6 | 11.3 | 0.00 | 0.00 | 0.00 | 53 | 1101.6 |
| 20260505150739 | 67 | 56 | 2.6 | 8.7 | 0.00 | 0.00 | 0.00 | 54 | 1101.7 |
| 20260505150236 | 65 | 152 | 1.7 | 7.0 | 0.00 | 0.00 | 0.00 | 54 | 1101.5 |
| 20260505140206 | 60 | 220 | 0.9 | 2.6 | 0.00 | 0.00 | 0.00 | 60 | 1101.6 |
| 20260505130129 | 61 | 143 | 0.9 | 1.7 | 0.00 | 0.00 | 0.00 | 55 | 1100.6 |
| 20260505124619 | 60 | 136 | 1.7 | 2.6 | 0.00 | 0.00 | 0.00 | 56 | 1100.3 |
| 20260505124115 | 60 | 144 | 0.9 | 1.7 | 0.00 | 0.00 | 0.00 | 57 | 1100.6 |
| 20260505123611 | 59 | 133 | 1.7 | 1.7 | 0.00 | 0.00 | 0.00 | 58 | 1100.6 |
| 20260505123108 | 59 | 142 | 0.0 | 1.7 | 0.00 | 0.00 | 0.00 | 58 | 1100.2 |
| 20260505122605 | 58 | 138 | 1.7 | 1.7 | 0.00 | 0.00 | 0.00 | 59 | 1100.4 |
| 20260505122102 | 59 | 119 | 0.9 | 2.6 | 0.00 | 0.00 | 0.00 | 59 | 1100.4 |
| 20260505121558 | 58 | 51 | 0.9 | 1.7 | 0.00 | 0.00 | 0.00 | 59 | 1100.4 |
| 20260505121055 | 58 | 137 | 0.9 | 1.7 | 0.00 | 0.00 | 0.00 | 59 | 1100.4 |
| 20260505120552 | 57 | 140 | 0.0 | 0.9 | 0.00 | 0.00 | 0.00 | 59 | 1100.4 |
| 20260505120047 | 58 | 138 | 1.7 | 2.6 | 0.00 | 0.00 | 0.00 | 59 | 1100.3 |
| 20260505115542 | 58 | 138 | 1.7 | 2.6 | 0.00 | 0.00 | 0.00 | 60 | 1100.3 |
| 20260505115040 | 57 | 131 | 0.9 | 1.7 | 0.00 | 0.00 | 0.00 | 59 | 1100.4 |
| 20260505114537 | 58 | 139 | 1.7 | 5.2 | 0.00 | 0.00 | 0.00 | 59 | 1100.3 |
| 20260505114033 | 57 | 137 | 1.7 | 2.6 | 0.00 | 0.00 | 0.00 | 59 | 1100.2 |
| 20260505113529 | 58 | 140 | 1.7 | 2.6 | 0.00 | 0.00 | 0.00 | 59 | 1100.1 |
| 20260505113026 | 58 | 139 | 1.7 | 2.6 | 0.00 | 0.00 | 0.00 | 58 | 1100.1 |
| 20260505112523 | 58 | 145 | 1.7 | 4.3 | 0.00 | 0.00 | 0.00 | 58 | 1100.0 |
| 20260505112021 | 58 | 143 | 1.7 | 2.6 | 0.00 | 0.00 | 0.00 | 58 | 1099.9 |
| 20260505111520 | 58 | 144 | 2.6 | 4.3 | 0.00 | 0.00 | 0.00 | 57 | 1099.7 |
| 20260505111016 | 58 | 138 | 1.7 | 2.6 | 0.00 | 0.00 | 0.00 | 56 | 1099.7 |
| 20260505110513 | 58 | 139 | 2.6 | 4.3 | 0.00 | 0.00 | 0.00 | 56 | 1099.7 |
| 20260505101945 | 59 | 69 | 2.6 | 5.2 | 0.00 | 0.00 | 0.00 | 54 | 1099.2 |
| 20260505101444 | 59 | 139 | 1.7 | 1.7 | 0.00 | 0.00 | 0.00 | 55 | 1099.5 |
| 20260505100940 | 59 | 71 | 0.9 | 2.6 | 0.00 | 0.00 | 0.00 | 55 | 1099.4 |
| 20260505100437 | 59 | 54 | 2.6 | 2.6 | 0.00 | 0.00 | 0.00 | 54 | 1099.4 |
| 20260505095933 | 59 | 90 | 0.9 | 2.6 | 0.00 | 0.00 | 0.00 | 54 | 1099.4 |
| 20260505095430 | 59 | 43 | 2.6 | 4.3 | 0.00 | 0.00 | 0.00 | 53 | 1099.5 |
| 20260505094926 | 59 | 131 | 0.9 | 2.6 | 0.00 | 0.00 | 0.00 | 54 | 1099.6 |
| 20260505094423 | 59 | 153 | 2.6 | 4.3 | 0.00 | 0.00 | 0.00 | 55 | 1099.4 |
| 20260505093919 | 59 | 60 | 1.7 | 2.6 | 0.00 | 0.00 | 0.00 | 54 | 1099.6 |
| 20260505093416 | 59 | 104 | 1.7 | 2.6 | 0.00 | 0.00 | 0.00 | 55 | 1099.9 |
| 20260505092913 | 59 | 131 | 1.7 | 2.6 | 0.00 | 0.00 | 0.00 | 55 | 1099.6 |
| 20260505092411 | 59 | 32 | 0.9 | 2.6 | 0.00 | 0.00 | 0.00 | 55 | 1099.6 |
| 20260505091908 | 59 | 137 | 2.6 | 4.3 | 0.00 | 0.00 | 0.00 | 54 | 1099.5 |
| 20260505091406 | 59 | 134 | 2.6 | 4.3 | 0.00 | 0.00 | 0.00 | 55 | 1099.7 |
| 20260505090904 | 59 | 49 | 1.7 | 4.3 | 0.00 | 0.00 | 0.00 | 56 | 1099.6 |
| 20260505090402 | 59 | 138 | 2.6 | 4.3 | 0.00 | 0.00 | 0.00 | 56 | 1099.7 |
| 20260505085859 | 59 | 120 | 0.9 | 4.3 | 0.00 | 0.00 | 0.00 | 55 | 1099.9 |
| 20260505085357 | 59 | 144 | 1.7 | 5.2 | 0.00 | 0.00 | 0.00 | 55 | 1099.7 |
| 20260505084855 | 59 | 140 | 4.3 | 5.2 | 0.00 | 0.00 | 0.00 | 55 | 1099.7 |
| 20260505084353 | 59 | 145 | 0.9 | 2.6 | 0.00 | 0.00 | 0.00 | 55 | 1099.7 |
| 20260505083850 | 60 | 142 | 3.5 | 5.2 | 0.00 | 0.00 | 0.00 | 55 | 1100.0 |
| 20260505083347 | 60 | 125 | 1.7 | 5.2 | 0.00 | 0.00 | 0.00 | 54 | 1100.0 |
| 20260505082844 | 60 | 139 | 3.5 | 4.3 | 0.00 | 0.00 | 0.00 | 54 | 1099.7 |
| 20260505082339 | 60 | 129 | 2.6 | 6.1 | 0.00 | 0.00 | 0.00 | 54 | 1100.0 |
| 20260505081836 | 60 | 136 | 3.5 | 5.2 | 0.00 | 0.00 | 0.00 | 54 | 1099.9 |
| 20260505081333 | 60 | 156 | 2.6 | 6.1 | 0.00 | 0.00 | 0.00 | 53 | 1099.7 |
| 20260505080830 | 60 | 130 | 3.5 | 5.2 | 0.00 | 0.00 | 0.00 | 53 | 1099.9 |
| 20260505080326 | 60 | 133 | 3.5 | 8.7 | 0.00 | 0.00 | 0.00 | 53 | 1099.9 |
| 20260505075821 | 60 | 135 | 4.3 | 7.0 | 0.00 | 0.00 | 0.00 | 53 | 1099.9 |
| 20260505075319 | 60 | 160 | 3.5 | 8.7 | 0.00 | 0.00 | 0.00 | 53 | 1099.9 |
| 20260505074816 | 60 | 134 | 3.5 | 7.0 | 0.00 | 0.00 | 0.00 | 53 | 1099.9 |
| 20260505074313 | 60 | 131 | 2.6 | 7.0 | 0.00 | 0.00 | 0.00 | 54 | 1100.1 |
| 20260505073810 | 60 | 145 | 3.5 | 7.0 | 0.00 | 0.00 | 0.00 | 54 | 1100.0 |
| 20260505073308 | 60 | 133 | 4.3 | 7.0 | 0.00 | 0.00 | 0.00 | 54 | 1099.7 |
| 20260505072805 | 60 | 141 | 2.6 | 6.1 | 0.00 | 0.00 | 0.00 | 54 | 1099.9 |
| 20260505072301 | 60 | 135 | 3.5 | 5.2 | 0.00 | 0.00 | 0.00 | 54 | 1099.7 |
| 20260505071756 | 60 | 134 | 3.5 | 5.2 | 0.00 | 0.00 | 0.00 | 54 | 1099.9 |
| 20260505071253 | 60 | 136 | 4.3 | 5.2 | 0.00 | 0.00 | 0.00 | 54 | 1100.0 |
| 20260505070751 | 60 | 133 | 3.5 | 5.2 | 0.00 | 0.00 | 0.00 | 54 | 1099.9 |
| 20260505070247 | 60 | 143 | 4.3 | 7.0 | 0.00 | 0.00 | 0.00 | 54 | 1099.9 |
| 20260505065743 | 60 | 132 | 3.5 | 6.1 | 0.00 | 0.00 | 0.00 | 54 | 1099.9 |
| 20260505065240 | 60 | 138 | 2.6 | 5.2 | 0.00 | 0.00 | 0.00 | 54 | 1100.0 |
| 20260505064737 | 60 | 134 | 4.3 | 6.1 | 0.00 | 0.00 | 0.00 | 54 | 1100.0 |
| 20260505064235 | 60 | 135 | 4.3 | 5.2 | 0.00 | 0.00 | 0.00 | 54 | 1100.0 |
| 20260505063732 | 60 | 134 | 3.5 | 6.1 | 0.00 | 0.00 | 0.00 | 54 | 1100.0 |
| 20260505063228 | 60 | 135 | 4.3 | 7.0 | 0.00 | 0.00 | 0.00 | 54 | 1099.9 |
| 20260505062725 | 60 | 145 | 5.2 | 7.0 | 0.00 | 0.00 | 0.00 | 53 | 1100.1 |
| 20260505062223 | 61 | 132 | 2.6 | 5.2 | 0.00 | 0.00 | 0.00 | 54 | 1100.0 |
| 20260505061719 | 61 | 133 | 3.5 | 5.2 | 0.00 | 0.00 | 0.00 | 53 | 1100.0 |
| 20260505061217 | 61 | 142 | 5.2 | 7.0 | 0.00 | 0.00 | 0.00 | 53 | 1100.2 |
| 20260505060714 | 60 | 141 | 4.3 | 5.2 | 0.00 | 0.00 | 0.00 | 53 | 1100.1 |
| 20260505060211 | 61 | 139 | 2.6 | 5.2 | 0.00 | 0.00 | 0.00 | 53 | 1100.0 |
| 20260505055706 | 61 | 122 | 2.6 | 5.2 | 0.00 | 0.00 | 0.00 | 53 | 1100.3 |
| 20260505055203 | 61 | 132 | 3.5 | 6.1 | 0.00 | 0.00 | 0.00 | 52 | 1100.1 |
| 20260505054700 | 60 | 133 | 0.9 | 2.6 | 0.00 | 0.00 | 0.00 | 54 | 1100.2 |
| 20260505054158 | 61 | 50 | 1.7 | 2.6 | 0.00 | 0.00 | 0.00 | 54 | 1100.3 |
| 20260505053656 | 61 | 135 | 4.3 | 6.1 | 0.00 | 0.00 | 0.00 | 53 | 1100.2 |
| 20260505053152 | 61 | 134 | 4.3 | 7.0 | 0.00 | 0.00 | 0.00 | 52 | 1100.4 |
| 20260505052649 | 61 | 140 | 4.3 | 7.0 | 0.00 | 0.00 | 0.00 | 52 | 1100.3 |
| 20260505052146 | 61 | 142 | 4.3 | 7.0 | 0.00 | 0.00 | 0.00 | 52 | 1100.4 |
| 20260505051643 | 61 | 119 | 3.5 | 6.1 | 0.00 | 0.00 | 0.00 | 52 | 1100.3 |
| 20260505051142 | 62 | 132 | 2.6 | 6.1 | 0.00 | 0.00 | 0.00 | 52 | 1100.3 |
| 20260505050639 | 62 | 133 | 3.5 | 7.0 | 0.00 | 0.00 | 0.00 | 52 | 1100.2 |
| 20260505050137 | 62 | 142 | 4.3 | 7.0 | 0.00 | 0.00 | 0.00 | 53 | 1100.2 |
| 20260505041607 | 62 | 134 | 4.3 | 6.1 | 0.00 | 0.00 | 0.00 | 51 | 1100.2 |
| 20260505041104 | 62 | 130 | 4.3 | 5.2 | 0.00 | 0.00 | 0.00 | 51 | 1100.2 |
| 20260505040601 | 62 | 148 | 3.5 | 5.2 | 0.00 | 0.00 | 0.00 | 51 | 1100.0 |
| 20260505040058 | 62 | 130 | 0.9 | 4.3 | 0.00 | 0.00 | 0.00 | 51 | 1100.2 |
| 20260505035555 | 62 | 109 | 1.7 | 2.6 | 0.00 | 0.00 | 0.00 | 51 | 1100.2 |
| 20260505035051 | 62 | 101 | 1.7 | 4.3 | 0.00 | 0.00 | 0.00 | 51 | 1100.3 |
| 20260505034548 | 62 | 126 | 3.5 | 7.0 | 0.00 | 0.00 | 0.00 | 50 | 1100.3 |
| 20260505034044 | 62 | 137 | 3.5 | 5.2 | 0.00 | 0.00 | 0.00 | 50 | 1100.3 |
| 20260505033542 | 62 | 120 | 4.3 | 5.2 | 0.00 | 0.00 | 0.00 | 50 | 1100.3 |
| 20260505033040 | 62 | 130 | 3.5 | 6.1 | 0.00 | 0.00 | 0.00 | 51 | 1100.1 |
| 20260505032537 | 62 | 136 | 5.2 | 6.1 | 0.00 | 0.00 | 0.00 | 51 | 1100.1 |
| 20260505032033 | 62 | 124 | 2.6 | 6.1 | 0.00 | 0.00 | 0.00 | 51 | 1100.4 |
| 20260505031531 | 62 | 131 | 3.5 | 6.1 | 0.00 | 0.00 | 0.00 | 51 | 1100.3 |
| 20260505031027 | 62 | 133 | 3.5 | 4.3 | 0.00 | 0.00 | 0.00 | 51 | 1100.2 |
| 20260505030524 | 62 | 132 | 2.6 | 5.2 | 0.00 | 0.00 | 0.00 | 51 | 1100.2 |
| 20260505030020 | 63 | 133 | 4.3 | 5.2 | 0.00 | 0.00 | 0.00 | 51 | 1100.5 |
| 20260505025516 | 63 | 144 | 4.3 | 6.1 | 0.00 | 0.00 | 0.00 | 52 | 1100.4 |
| 20260505025016 | 62 | 139 | 2.6 | 6.1 | 0.00 | 0.00 | 0.00 | 53 | 1100.4 |
| 20260505024512 | 63 | 140 | 2.6 | 5.2 | 0.00 | 0.00 | 0.00 | 54 | 1100.4 |
| 20260505024009 | 63 | 139 | 3.5 | 5.2 | 0.00 | 0.00 | 0.00 | 54 | 1100.4 |
| 20260505023506 | 63 | 154 | 4.3 | 5.2 | 0.00 | 0.00 | 0.00 | 54 | 1100.5 |
| 20260505023004 | 63 | 132 | 2.6 | 4.3 | 0.00 | 0.00 | 0.00 | 54 | 1100.4 |
| 20260505022501 | 63 | 136 | 1.7 | 5.2 | 0.00 | 0.00 | 0.00 | 55 | 1100.3 |
| 20260505021958 | 63 | 136 | 2.6 | 4.3 | 0.00 | 0.00 | 0.00 | 55 | 1100.1 |
| 20260505021454 | 64 | 128 | 2.6 | 5.2 | 0.00 | 0.00 | 0.00 | 54 | 1100.2 |
| 20260505020950 | 64 | 135 | 2.6 | 5.2 | 0.00 | 0.00 | 0.00 | 55 | 1100.1 |
| 20260505020445 | 64 | 140 | 2.6 | 4.3 | 0.00 | 0.00 | 0.00 | 55 | 1100.1 |
| 20260505015943 | 64 | 134 | 2.6 | 5.2 | 0.00 | 0.00 | 0.00 | 55 | 1100.2 |
| 20260505015440 | 64 | 138 | 2.6 | 5.2 | 0.00 | 0.00 | 0.00 | 55 | 1100.1 |
| 20260505014937 | 64 | 141 | 1.7 | 2.6 | 0.00 | 0.00 | 0.00 | 56 | 1100.0 |
| 20260505014433 | 64 | 132 | 2.6 | 4.3 | 0.00 | 0.00 | 0.00 | 55 | 1100.0 |
| 20260505013931 | 64 | 139 | 1.7 | 2.6 | 0.00 | 0.00 | 0.00 | 56 | 1099.9 |
| 20260505013428 | 64 | 123 | 0.9 | 2.6 | 0.00 | 0.00 | 0.00 | 56 | 1100.0 |
| 20260505012926 | 64 | 128 | 0.9 | 2.6 | 0.00 | 0.00 | 0.00 | 55 | 1099.7 |
| 20260505012423 | 64 | 141 | 1.7 | 1.7 | 0.00 | 0.00 | 0.00 | 56 | 1100.0 |
| 20260505011919 | 64 | 46 | 0.9 | 1.7 | 0.00 | 0.00 | 0.00 | 56 | 1099.7 |
| 20260505011416 | 64 | 56 | 1.7 | 1.7 | 0.00 | 0.00 | 0.00 | 56 | 1099.9 |
| 20260505010913 | 64 | 48 | 1.7 | 1.7 | 0.00 | 0.00 | 0.00 | 55 | 1099.7 |
| 20260505010408 | 64 | 55 | 1.7 | 2.6 | 0.00 | 0.00 | 0.00 | 55 | 1099.7 |
| 20260505005904 | 64 | 57 | 1.7 | 1.7 | 0.00 | 0.00 | 0.00 | 55 | 1099.5 |
| 20260505005401 | 65 | 69 | 0.9 | 1.7 | 0.00 | 0.00 | 0.00 | 55 | 1099.5 |
| 20260505004859 | 65 | 103 | 0.0 | 0.9 | 0.00 | 0.00 | 0.00 | 54 | 1099.6 |
| 20260505004355 | 65 | 120 | 0.9 | 1.7 | 0.00 | 0.00 | 0.00 | 54 | 1099.6 |
| 20260505003853 | 66 | 136 | 1.7 | 2.6 | 0.00 | 0.00 | 0.00 | 52 | 1099.6 |
| 20260505003350 | 66 | 129 | 1.7 | 1.7 | 0.00 | 0.00 | 0.00 | 52 | 1099.5 |
| 20260505002845 | 66 | 117 | 0.9 | 0.9 | 0.00 | 0.00 | 0.00 | 52 | 1099.5 |
| 20260505002342 | 66 | 117 | 0.0 | 1.7 | 0.00 | 0.00 | 0.00 | 51 | 1099.4 |